This demonstration page uses our WeatherBlox Daily Observations layout. Learn more.

Left ArrowRight Arrow

Hourly Observations for May 6, 2020

Temp ( °F °C ) Dew Point ( °F °C ) Humidity (%) Winds ( mph kmh ) Pressure ( in mb ) Visibility ( mi km ) Precip ( " mm )
12:15 am 00:15 Partly Cloudy 49 9.2 37 2.8 65 65 Calm 30.25 1024 10 16.0934 0 0
12:35 am 00:35 Cloudy 47 8.6 38 3.1 69 69 NW 3 6 30.27 1025 10 16.0934 0 0
12:55 am 00:55 Cloudy 49 9.2 38 3.3 67 67 NW 5 7 30.28 1025 10 16.0934 0 0
1:15 am 01:15 Cloudy 49 9.4 38 3.5 67 67 NW 6 9 30.28 1025 10 16.0934 0 0
1:35 am 01:35 Mostly Cloudy 50 10 39 3.7 65 65 NW 6 9 30.28 1025 10 16.0934 0 0
1:55 am 01:55 Mostly Cloudy 49 9.6 40 4.4 70 70 WNW 6 9 30.3 1026 10 16.0934 0 0
2:15 am 02:15 Mostly Cloudy 49 9.6 39 4 68 68 WNW 5 7 30.3 1026 10 16.0934 0 0
2:35 am 02:35 Partly Cloudy 48 9.1 39 3.7 69 69 WNW 7 11 30.31 1026 10 16.0934 0 0
2:55 am 02:55 Clear 47 8.1 38 3.6 74 74 W 5 7 30.31 1026 10 16.0934 0 0
3:15 am 03:15 Clear 46 7.7 38 3.4 74 74 WNW 6 9 30.32 1027 10 16.0934 0 0
3:35 am 03:35 Clear 44 6.7 38 3.1 78 78 NNW 7 11 30.33 1027 10 16.0934 0 0
3:55 am 03:55 Clear 44 6.6 37 2.7 76 76 WNW 6 9 30.34 1028 10 16.0934 0 0
4:15 am 04:15 Clear 42 5.6 37 2.5 81 81 WNW 6 9 30.35 1028 10 16.0934 0 0
4:35 am 04:35 Clear 41 5 36 2.3 83 83 NW 6 9 30.37 1028 10 16.0934 0 0
4:55 am 04:55 Clear 41 4.9 36 2.4 84 84 NW 7 11 30.37 1028 10 16.0934 0 0
5:15 am 05:15 Clear 42 5.5 37 2.6 82 82 NW 8 13 30.36 1028 10 16.0934 0 0
5:35 am 05:35 Clear 41 5.1 37 2.5 83 83 NW 8 13 30.37 1028 10 16.0934 0 0
5:55 am 05:55 Clear 42 5.7 37 2.7 81 81 NW 8 13 30.36 1028 10 16.0934 0 0
6:15 am 06:15 Clear 40 4.7 36 2.3 85 85 NW 7 11 30.37 1028 10 16.0934 0 0
6:35 am 06:35 Sunny 41 5 37 2.6 85 85 NW 7 11 30.37 1028 10 16.0934 0 0
6:55 am 06:55 Sunny 41 5 37 2.7 85 85 NW 7 11 30.39 1029 10 16.0934 0 0
7:15 am 07:15 Sunny 42 5.5 38 3.1 85 85 NW 8 13 30.38 1029 10 16.0934 0 0
7:35 am 07:35 Sunny 43 6.3 38 3.3 81 81 NW 9 15 30.39 1029 10 16.0934 0 0
7:55 am 07:55 Sunny 45 7.1 38 3.2 76 76 NW 9 15 30.38 1029 10 16.0934 0 0
8:15 am 08:15 Sunny 47 8.1 37 2.5 68 68 NNW 13 20 30.37 1028 10 16.0934 0 0
8:35 am 08:35 Sunny 48 8.9 36 2.4 64 64 NNW 10 17 30.36 1028 10 16.0934 0 0
8:55 am 08:55 Sunny 49 9.5 36 2 60 60 NNW 10 17 30.36 1028 10 16.0934 0 0
9:15 am 09:15 Sunny 51 10.3 35 1.8 56 56 NNW 16 26 30.35 1028 10 16.0934 0 0
9:35 am 09:35 Sunny 51 10.8 35 1.6 53 53 NNW 15 24 30.35 1028 10 16.0934 0 0
9:55 am 09:55 Sunny 52 11.3 35 1.8 52 52 N 13 20 30.34 1027 10 16.0934 0 0
10:15 am 10:15 Sunny 54 12 33 0.6 46 46 NNW 15 24 30.34 1027 10 16.0934 0 0
10:35 am 10:35 Sunny 55 12.9 34 1 44 44 NNW 15 24 30.33 1027 10 16.0934 0 0
10:55 am 10:55 Sunny 56 13.3 34 0.9 43 43 NNW 12 19 30.32 1027 10 16.0934 0 0
11:15 am 11:15 Sunny 57 14 33 0.7 41 41 N 14 22 30.32 1027 10 16.0934 0 0
11:35 am 11:35 Sunny 57 13.9 33 0.4 40 40 NNW 15 24 30.32 1027 10 16.0934 0 0
11:55 am 11:55 Sunny 58 14.3 33 0.5 39 39 N 12 19 30.3 1026 10 16.0934 0 0
12:15 pm 12:15 Sunny 59 15 33 0.3 37 37 N 14 22 30.29 1026 10 16.0934 0 0
12:35 pm 12:35 Sunny 59 15.1 32 0.1 36 36 N 9 15 30.29 1026 10 16.0934 0 0
12:55 pm 12:55 Sunny 60 15.4 33 0.5 36 36 N 10 17 30.28 1025 10 16.0934 0 0
1:15 pm 13:15 Sunny 60 15.6 33 0.6 36 36 N 10 17 30.26 1025 10 16.0934 0 0
1:35 pm 13:35 Sunny 61 15.9 33 0.7 36 36 NNW 10 17 30.25 1024 10 16.0934 0 0
1:55 pm 13:55 Sunny 61 16.3 33 0.5 34 34 NW 13 20 30.25 1024 10 16.0934 0 0
2:15 pm 14:15 Sunny 62 16.5 33 0.5 34 34 NNW 10 17 30.24 1024 10 16.0934 0 0
2:35 pm 14:35 Sunny 62 16.5 33 0.6 34 34 N 7 11 30.23 1024 10 16.0934 0 0
2:55 pm 14:55 Sunny 62 16.9 34 1 34 34 NW 9 15 30.22 1023 10 16.0934 0 0
3:15 pm 15:15 Sunny 63 17.1 33 0.4 32 32 NW 12 19 30.21 1023 10 16.0934 0 0
3:35 pm 15:35 Sunny 63 17.1 33 0.7 33 33 N 10 17 30.21 1023 10 16.0934 0 0
3:55 pm 15:55 Sunny 64 17.5 33 0.6 32 32 N 9 15 30.2 1023 10 16.0934 0 0
4:15 pm 16:15 Partly Cloudy 63 17.4 34 1.1 34 34 NE 6 9 30.19 1022 10 16.0934 0 0
4:35 pm 16:35 Sunny 63 17.4 33 0.5 32 32 N 10 17 30.18 1022 10 16.0934 0 0
4:55 pm 16:55 Sunny 63 17 33 0.3 32 32 NNE 6 9 30.18 1022 10 16.0934 0 0
5:15 pm 17:15 Sunny 63 17.1 32 0 32 32 N 6 9 30.18 1022 10 16.0934 0 0
5:35 pm 17:35 Sunny 63 17.1 33 0.8 33 33 NNE 7 11 30.17 1022 10 16.0934 0 0
5:55 pm 17:55 Sunny 63 17.1 33 0.8 33 33 N 7 11 30.16 1021 10 16.0934 0 0
6:15 pm 18:15 Sunny 63 17.1 33 0.8 33 33 N 7 11 30.16 1021 10 16.0934 0 0
6:35 pm 18:35 Sunny 63 17.2 34 0.9 33 33 N 9 15 30.15 1021 10 16.0934 0 0
6:55 pm 18:55 Sunny 63 17 34 0.9 34 34 NNE 9 15 30.15 1021 10 16.0934 0 0
7:15 pm 19:15 Sunny 62 16.8 32 0.1 32 32 N 5 7 30.15 1021 10 16.0934 0 0
7:35 pm 19:35 Sunny 61 16 34 1.2 37 37 NE 7 11 30.15 1021 10 16.0934 0 0
7:55 pm 19:55 Sunny 60 15.5 35 1.4 39 39 NE 7 11 30.16 1021 10 16.0934 0 0
8:15 pm 20:15 Sunny 58 14.4 34 1.1 41 41 E 5 7 30.17 1022 10 16.0934 0 0
8:35 pm 20:35 Sunny 57 14.1 34 1 41 41 E 6 9 30.18 1022 10 16.0934 0 0
8:55 pm 20:55 Clear 56 13.5 34 1.2 43 43 ENE 7 11 30.18 1022 10 16.0934 0 0
9:15 pm 21:15 Clear 54 12 35 1.5 49 49 E 8 13 30.2 1023 10 16.0934 0 0
9:35 pm 21:35 Clear 55 12.7 34 1.3 46 46 E 8 13 30.19 1022 10 16.0934 0 0
9:55 pm 21:55 Clear 52 11 36 2 54 54 E 8 13 30.2 1023 10 16.0934 0 0
10:15 pm 22:15 Clear 51 10.7 36 2.1 56 56 E 12 19 30.21 1023 10 16.0934 0 0
10:35 pm 22:35 Clear 50 10 36 2.1 58 58 E 10 17 30.21 1023 10 16.0934 0 0
10:55 pm 22:55 Clear 49 9.4 36 2.3 62 62 ESE 9 15 30.21 1023 10 16.0934 0 0
11:15 pm 23:15 Clear 48 8.7 37 2.5 65 65 ESE 10 17 30.21 1023 10 16.0934 0 0
11:35 pm 23:35 Clear 49 9.2 37 2.5 63 63 SE 9 15 30.21 1023 10 16.0934 0 0
11:55 pm 23:55 Clear 48 8.7 37 2.5 65 65 SE 10 17 30.21 1023 10 16.0934 0 0

Powered by AerisWeather